Regional Weather Roundup
Issued by NWS

Home | Current Version | Previous Version | Text Only | Print | Product List | Glossary On
Versions: 1 2 3 4 5 6 7 8 9 10 11 12 13 14 15 16 17 18 19 20 21 22 23 24 25 26 27 28 29 30 31 32 33 34 35 36 37 38 39 40 41 42 43 44 45 46 47 48 49 50
000
ASMX46 KSGX 302103
RWRMX

MEXICAN WEATHER ROUNDUP
NATIONAL WEATHER SERVICE SAN DIEGO CA
200 PM PDT SAT AUG 30 2014

BAJA CALIFORNIA

CITY           SKY/WX    TMP DP  RH WIND       PRES   REMARKS
ENSENADA NW      N/A     73  32  22 W9        29.78F
LA PAZ         MOSUNNY   97  70  41 N12       29.73  HX 103
LORETO         MOSUNNY   93  79  62 SE12      29.71F HX 110
MEXICALI       SUNNY    108  41  10 SE9       29.67  HX 102
S.J. DEL CABO  PTSUNNY   90  73  58 SE17      29.79F HX  98
TIJUANA        SUNNY     81  61  50 W14       29.83F

NORTHWESTERN MEXICO

CITY           SKY/WX    TMP DP  RH WIND       PRES   REMARKS
CHIHUAHUA      PTSUNNY   88  46  23 CALM      30.06
CULIACAN       PTSUNNY   97  81  59 SW12      29.76  HX 118
GUAYMAS          N/A    N/A N/A N/A MISG        N/A
HERMOSILLO     SUNNY    106  61  23 SW7       29.78  HX 107
JUAREZ         MOSUNNY   95  52  23 SE13      29.97
LOS MOCHIS     MOSUNNY   93  72  49 SW14      29.74F HX 100
OBREGON        SUNNY    100  68  34 SW5       29.71  HX 106

NORTHEASTERN MEXICO

CITY           SKY/WX    TMP DP  RH WIND       PRES   REMARKS
MATAMOROS      PTSUNNY   84  79  84 NE12      29.88  HX  96
MONCLOVA         N/A    N/A N/A N/A MISG        N/A
MONTERREY      PTSUNNY   93  63  36 NE7       29.83F
NUEVO LAREDO   PTSUNNY  100  72  39 CALM      29.83  HX 109
PIEDRAS NEGRAS MOSUNNY   97  70  41 E6        29.87F HX 103
REYNOSA        MOSUNNY   90  72  55 E14       29.82  HX  96
SALTILLO       PTSUNNY   86  63  45 NE17      30.09F
TORREON        MOSUNNY   91  55  29 CALM      29.99F
VICTORIA       MOSUNNY  100  57  23 S6        29.81  HX  99

WESTERN MEXICO

CITY           SKY/WX    TMP DP  RH WIND       PRES   REMARKS
AGUASCALIENTES PTSUNNY   81  41  24 E7        30.15
COLIMA         PTSUNNY   82  72  69 SW6       29.90F
DURANGO        PTSUNNY   81  48  32 E2        30.14F
GUADALAJARA    PTSUNNY   81  57  44 SE9       30.06
MANZANILLO     PTSUNNY   88  75  66 SE14      29.73F HX  97
MAZATLAN       PTSUNNY   88  75  66 SW10      29.76F HX  97
PTO. VALLARTA  PTSUNNY   91  75  59 SW7       29.78F HX 102
TEPIC          PTSUNNY   84  73  70 N7        30.02F
URUAPAN        CLOUDY    72  66  83 S12       30.11F
ZACATECAS      PTSUNNY   81  52  36 E6G17     30.20F

CENTRAL MEXICO

CITY           SKY/WX    TMP DP  RH WIND       PRES   REMARKS
CUERNAVACA     PTSUNNY   79  63  57 SW6       30.01F
LEON           PTSUNNY   79  50  36 NE5       30.16F
MEXICO CITY    CLOUDY    73  48  40 NE13      30.18F
MORELIA        PTSUNNY   73  63  68 SE2       30.12
POZA RICA      CLOUDY    82  77  83 W12       29.85S
PUEBLA         LGT RAIN  66  57  72 S12       30.22F
QUERETARO      PTSUNNY   81  52  36 E5        30.16F
S. LUIS POTOSI MOSUNNY   81  46  30 SE7       30.14F
TAMPICO        PTSUNNY   90  73  58 CALM      29.84F HX  98
TOLUCA         PTSUNNY   68  52  56 SE20      30.27F
VERACRUZ       MOSUNNY   88  73  62 NE12      29.81F HX  96

SOUTHERN MEXICO

CITY           SKY/WX    TMP DP  RH WIND       PRES   REMARKS
ACAPULCO       PTSUNNY   86  75  70 S9        29.79F HX  95
B. DE HUATULCO CLOUDY    77  70  78 E14       29.87
MINATITLAN     SUNNY     90  68  48 N17       29.78
OAXACA         CLOUDY    70  61  73 CALM      30.09F
PTO. ESCONDIDO PTSUNNY   82  75  78 SE22      30.00S
TAPACHULA      PTSUNNY   86  79  79 SW14      29.82F HX  99
TUX. GUTIERREZ PTSUNNY   90  68  48 SE5       29.85F
VILLAHERMOSA   PTSUNNY   90  73  58 CALM      29.80F HX  98
ZIHUATANEJO    PTSUNNY   84  77  79 W6        29.80F

YUCATAN PENINSULA

CITY           SKY/WX    TMP DP  RH WIND       PRES   REMARKS
CAMPECHE       MOSUNNY   91  73  55 E9        29.80F HX 100
CANCUN         PTSUNNY   88  73  62 E9        29.89F HX  96
CHETUMAL       PTSUNNY   81  73  78 SE6       29.82
C. DEL CARMEN  PTSUNNY   91  72  52 SE10      29.80  HX  98
COZUMEL        PTSUNNY   82  77  83 E18       29.88F
MERIDA         PTSUNNY   93  68  43 E12       29.82F HX  97

$$



USA.gov is the U.S. government's official web portal to all federal, state and local government web resources and services.